• In Hungary
  • List of Countries
  • For 7 days
  • Water Temperature
  • Satellite Maps
  • Weather Map
  • News
  • Weather Widgets
  • user-avatar
    Login

    Hourly Weather Okoniny Nadjeziorne

    Today, 19 February, Monday

    Time Temperature Precipitation Wind Pressure Humidity
    00:00 0°C° 0 mm 1 mps 758 mmHg 85%
    01:00 0°C° 0 mm 1 mps 758 mmHg 84%
    02:00 0°C° 0 mm 1 mps 758 mmHg 84%
    03:00 0°C° 0 mm 1 mps 758 mmHg 83%
    04:00 0°C° 0 mm 1 mps 757 mmHg 83%
    05:00 0°C° 0 mm 1 mps 757 mmHg 83%
    06:00 0°C° 0 mm 1 mps 757 mmHg 83%
    07:00 0°C° 0 mm 1 mps 757 mmHg 83%
    08:00 0°C° 0 mm 1 mps 757 mmHg 79%
    09:00 +1°C° 0 mm 1 mps 757 mmHg 75%
    10:00 +1°C° 0 mm 2 mps 757 mmHg 71%
    11:00 +1°C° 0 mm 2 mps 757 mmHg 68%
    12:00 +1°C° 0 mm 2 mps 757 mmHg 64%
    13:00 +2°C° 0 mm 2 mps 757 mmHg 61%
    14:00 +1°C° 0 mm 2 mps 756 mmHg 63%
    15:00 +2°C° 0 mm 1 mps 756 mmHg 66%
    16:00 +2°C° 0 mm 1 mps 756 mmHg 68%
    17:00 +1°C° 0 mm 1 mps 756 mmHg 70%
    18:00 +1°C° 0 mm 1 mps 756 mmHg 72%
    19:00 +1°C° 0 mm 1 mps 756 mmHg 75%
    20:00 -2°C° 0 mm 2 mps 756 mmHg 75%
    21:00 -2°C° 0 mm 2 mps 756 mmHg 76%
    22:00 -2°C° 0 mm 2 mps 756 mmHg 77%
    23:00 -2°C° 0 mm 2 mps 756 mmHg 78%

    Tomorrow, 20 February, Tuesday

    Time Temperature Precipitation Wind Pressure Humidity
    00:00 -2°C° 0 mm 2 mps 756 mmHg 78%
    01:00 -2°C° 0 mm 2 mps 756 mmHg 78%
    02:00 -2°C° 0 mm 2 mps 756 mmHg 78%
    03:00 -2°C° 0 mm 2 mps 756 mmHg 78%
    04:00 -3°C° 0 mm 2 mps 756 mmHg 78%
    05:00 -3°C° 0 mm 2 mps 756 mmHg 78%
    06:00 -3°C° 0 mm 2 mps 756 mmHg 78%
    07:00 -3°C° 0 mm 2 mps 756 mmHg 78%
    08:00 -2°C° 0 mm 2 mps 756 mmHg 73%
    09:00 -1°C° 0 mm 3 mps 756 mmHg 68%
    10:00 0°C° 0 mm 3 mps 756 mmHg 64%
    11:00 0°C° 0 mm 3 mps 756 mmHg 61%
    12:00 +1°C° 0 mm 3 mps 756 mmHg 59%
    13:00 +1°C° 0 mm 3 mps 756 mmHg 57%
    14:00 +1°C° 0 mm 3 mps 756 mmHg 60%
    15:00 0°C° 0 mm 3 mps 756 mmHg 63%
    16:00 0°C° 0 mm 3 mps 756 mmHg 66%
    17:00 -1°C° 0 mm 3 mps 757 mmHg 70%
    18:00 -2°C° 0 mm 3 mps 757 mmHg 75%
    19:00 -2°C° 0 mm 3 mps 757 mmHg 80%
    20:00 -2°C° 0 mm 3 mps 757 mmHg 82%
    21:00 -4°C° 0 mm 3 mps 758 mmHg 84%
    22:00 -4°C° 0 mm 3 mps 758 mmHg 86%
    23:00 -4°C° 0 mm 3 mps 758 mmHg 86%

    Day after tomorrow, 21 February, Wednesday

    Time Temperature Precipitation Wind Pressure Humidity
    00:00 -4°C° 0 mm 3 mps 758 mmHg 86%
    01:00 -4°C° 0 mm 3 mps 758 mmHg 86%
    02:00 -4°C° 0 mm 3 mps 758 mmHg 84%
    03:00 -4°C° 0 mm 3 mps 758 mmHg 82%
    04:00 -4°C° 0 mm 3 mps 758 mmHg 81%
    05:00 -4°C° 0 mm 3 mps 758 mmHg 80%
    06:00 -4°C° 0 mm 3 mps 758 mmHg 79%
    07:00 -4°C° 0 mm 3 mps 758 mmHg 78%
    08:00 -4°C° 0 mm 3 mps 758 mmHg 73%
    09:00 -4°C° 0 mm 3 mps 758 mmHg 69%
    10:00 -2°C° 0 mm 3 mps 758 mmHg 64%
    11:00 -2°C° 0 mm 3 mps 758 mmHg 62%
    12:00 -2°C° 0 mm 3 mps 758 mmHg 61%
    13:00 -2°C° 0 mm 3 mps 758 mmHg 59%
    14:00 -2°C° 0 mm 3 mps 758 mmHg 59%
    15:00 -2°C° 0 mm 3 mps 758 mmHg 60%
    16:00 -2°C° 0 mm 3 mps 757 mmHg 60%
    17:00 -2°C° 0 mm 3 mps 758 mmHg 63%
    18:00 -3°C° 0 mm 2 mps 758 mmHg 66%
    19:00 -3°C° 0 mm 2 mps 758 mmHg 69%
    20:00 -3°C° 0 mm 2 mps 758 mmHg 70%
    21:00 -4°C° 0 mm 2 mps 758 mmHg 71%
    22:00 -4°C° 0 mm 2 mps 758 mmHg 72%
    23:00 -4°C° 0 mm 2 mps 758 mmHg 72%

    22 February, Thursday

    Time Temperature Precipitation Wind Pressure Humidity
    00:00 -4°C° 0 mm 2 mps 758 mmHg 73%
    01:00 -4°C° 0 mm 2 mps 758 mmHg 73%
    02:00 -4°C° 0 mm 2 mps 758 mmHg 73%
    03:00 -5°C° 0 mm 2 mps 758 mmHg 73%
    04:00 -5°C° 0 mm 2 mps 758 mmHg 73%
    05:00 -5°C° 0 mm 2 mps 758 mmHg 72%
    06:00 -5°C° 0 mm 2 mps 758 mmHg 72%
    07:00 -5°C° 0 mm 2 mps 758 mmHg 71%
    08:00 -6°C° 0 mm 3 mps 758 mmHg 65%
    09:00 -5°C° 0 mm 3 mps 758 mmHg 60%
    10:00 -5°C° 0 mm 3 mps 758 mmHg 55%
    11:00 -5°C° 0 mm 3 mps 758 mmHg 53%
    12:00 -4°C° 0 mm 4 mps 758 mmHg 52%
    13:00 -4°C° 0 mm 4 mps 757 mmHg 51%
    14:00 -4°C° 0 mm 4 mps 757 mmHg 52%
    15:00 -4°C° 0 mm 4 mps 757 mmHg 53%
    16:00 -5°C° 0 mm 4 mps 757 mmHg 54%
    17:00 -6°C° 0 mm 5 mps 757 mmHg 56%
    18:00 -7°C° 0 mm 5 mps 757 mmHg 58%
    19:00 -8°C° 0 mm 5 mps 757 mmHg 61%
    20:00 -8°C° 0 mm 5 mps 757 mmHg 61%
    21:00 -8°C° 0 mm 4 mps 757 mmHg 62%
    22:00 -9°C° 0 mm 4 mps 757 mmHg 63%
    23:00 -9°C° 0 mm 4 mps 757 mmHg 63%

    23 February, Friday

    Time Temperature Precipitation Wind Pressure Humidity
    00:00 -9°C° 0 mm 4 mps 756 mmHg 64%
    01:00 -9°C° 0 mm 4 mps 756 mmHg 64%
    02:00 -10°C° 0 mm 4 mps 756 mmHg 64%
    03:00 -10°C° 0 mm 4 mps 756 mmHg 65%
    04:00 -10°C° 0 mm 4 mps 755 mmHg 65%
    05:00 -10°C° 0 mm 4 mps 755 mmHg 66%
    06:00 -10°C° 0 mm 4 mps 755 mmHg 66%
    07:00 -11°C° 0 mm 4 mps 755 mmHg 67%
    08:00 -10°C° 0 mm 4 mps 755 mmHg 63%
    09:00 -9°C° 0 mm 4 mps 754 mmHg 59%
    10:00 -9°C° 0 mm 4 mps 754 mmHg 54%
    11:00 -8°C° 0 mm 4 mps 754 mmHg 51%
    12:00 -8°C° 0 mm 4 mps 754 mmHg 48%
    13:00 -7°C° 0 mm 4 mps 753 mmHg 45%
    14:00 -7°C° 0 mm 4 mps 753 mmHg 47%
    15:00 -7°C° 0 mm 4 mps 753 mmHg 48%
    16:00 -8°C° 0 mm 4 mps 752 mmHg 49%
    17:00 -8°C° 0 mm 4 mps 752 mmHg 52%
    18:00 -9°C° 0 mm 4 mps 752 mmHg 54%
    19:00 -9°C° 0 mm 4 mps 752 mmHg 57%
    20:00 -9°C° 0 mm 4 mps 752 mmHg 58%
    21:00 -10°C° 0 mm 4 mps 752 mmHg 59%
    22:00 -10°C° 0 mm 4 mps 752 mmHg 60%
    23:00 -10°C° 0 mm 4 mps 752 mmHg 60%

    24 February, Saturday

    Time Temperature Precipitation Wind Pressure Humidity
    00:00 -9°C° 0 mm 3 mps 752 mmHg 61%
    01:00 -10°C° 0 mm 3 mps 752 mmHg 62%
    02:00 -10°C° 0 mm 3 mps 752 mmHg 63%
    03:00 -10°C° 0 mm 3 mps 751 mmHg 65%
    04:00 -9°C° 0 mm 2 mps 751 mmHg 66%
    05:00 -10°C° 0.1 mm 3 mps 751 mmHg 67%
    06:00 -10°C° 0.1 mm 3 mps 751 mmHg 68%
    07:00 -10°C° 0.1 mm 3 mps 751 mmHg 68%
    08:00 -9°C° 0.1 mm 3 mps 751 mmHg 65%
    09:00 -9°C° 0.1 mm 3 mps 751 mmHg 61%
    10:00 -8°C° 0.1 mm 3 mps 751 mmHg 57%
    11:00 -8°C° 0.2 mm 3 mps 751 mmHg 56%
    12:00 -9°C° 0.2 mm 4 mps 751 mmHg 55%
    13:00 -8°C° 0.2 mm 4 mps 750 mmHg 54%
    14:00 -9°C° 0.1 mm 4 mps 750 mmHg 52%
    15:00 -9°C° 0.1 mm 4 mps 750 mmHg 51%
    16:00 -9°C° 0.1 mm 4 mps 750 mmHg 49%
    17:00 -9°C° 0 mm 4 mps 749 mmHg 53%
    18:00 -8°C° 0 mm 3 mps 749 mmHg 57%
    19:00 -9°C° 0 mm 3 mps 749 mmHg 60%
    20:00 -9°C° 0 mm 3 mps 749 mmHg 63%
    21:00 -9°C° 0 mm 3 mps 749 mmHg 66%
    22:00 -9°C° 0 mm 3 mps 749 mmHg 68%
    23:00 -9°C° 0.1 mm 3 mps 748 mmHg 72%
    Show more